Find Iridium Next SV166

NORAD ID: 43570 Int'l Des: 2018-061 Owner: IRIDS Country: US Constellation: Iridium NEXT operational
LEOCIRCULARPOLAR

当前视图

正在加载3D地球...

About Iridium Next SV166

Iridium Next SV166 (NORAD 43570) is a Iridium NEXT constellation satellite launched Jul 25, 2018 by IRIDS of US. It operates in LEO, CIRCULAR, POLAR orbit with a mass of 860.00 kg.

关于 Iridium Next SV166

正在加载描述...

即将过境

Passes for default location (London). Set your location on the main map for personalized predictions.

高度历史

Loading altitude history...

两行轨道根数

1 43570U 18061B 26195.08614022 .00000033 00000-0 47647-5 0 9990
2 43570 86.3939 45.4960 0002298 90.8457 269.3002 14.34217539417251
Epoch: Jul 14, 2026 • Age: 14 hours

当前状态

高度 785.9 km
远地点 / 近地点 N/A
速度 7.47 km/s
星下点 56.82°N, 117.67°W
发射日期 Jul 25, 2018
运行时间 7.9 years
类型 communications

技术详情

分类 Payload
质量 860.00 kg
干质量 700.00 kg
总质量 860.00 kg
长度 3.10 m
直径 1.50 m
跨度 9.40 m
形状 Half Hex Prism+2 pan
制造商 NGISGA
平台类型 EliteBus
阶段状态 In Orbit
所有者/国家 IRIDS/US

Most Searched